Weather in Sukhoi Log

Russia / Sverdlovsk Oblast     56°54′19″N   62°02′07″E
temp.,
°C
wind,
m/s
gust,
m/s
humid.,
%
clouds,
%
prec.,
mm/h
press.,
hPa
HPBL,
m
15 may, sat
sat1523:00+20w35425 0.0 102179
02:00+17w37533 0.0 1022115
05:00+16w375989 0.0 1022113
08:00+22wsw47418 0.0 1021328
11:00+28wsw47305 0.0 10201411
14:00+31wsw692197 0.0 10183206
17:00+30w69246 0.0 10183194
20:00+25w4104234 0.0 1017642
16 may, sun
sun1623:00+21w375756 0.0 1018144
02:00+18wsw377270 0.8 1018123
05:00+17wsw415637 0.8 1018340
08:00+23w5144561 0.0 1019736
11:00+28wnw59275 0.0 10191546
14:00+31wnw691786 0.0 10183372
17:00+31w58165 0.0 10173881
20:00+25wsw3532100 0.0 101776
17 may, mon
mon1723:00+21w311415 0.0 1018203
02:00+19w310525 0.0 1018182
05:00+17wsw311575 0.0 1018210
08:00+24w494065 0.0 1018385
11:00+30w582466 0.0 10173276
14:00+29wnw51024100 0.0 10162586
17:00+30w7102181 0.0 10153019
20:00+25w41034100 0.0 1015568
18 may, tue
tue1823:00+20nnw225012 0.0 101629
02:00+17wsw126320 0.0 101611
05:00+17w3561100 0.0 1016100
08:00+21wnw364899 0.0 1017363
11:00+26nw46300 0.0 10162446
14:00+28nw582476 0.0 10153721
17:00+28nw592286 0.0 10143484
20:00+21ne9124646 0.1 1016797
19 may, wed
wed1923:00+14n117695 0.2 101914
02:00+13nnw228148 0.0 102131
05:00+11ne23910 0.0 102260
08:00+16ene34722 0.0 1024558
11:00+21e22485 0.0 10231198
14:00+25e12357 0.0 10231896
17:00+25se123322 0.0 10222034
20:00+21sse355014 0.0 1022131